KI4SSU Weather Reports


Display with metric or nautical units.
time (UTC)temp
F
wind
direction
speed
MPH
gust
MPH
rain 1hr
in
rain 24hr
in
rain mn
in
humidity
%
barometer
mb
20260903210419 94 184 4.0 8.0 0.00 0.00 0.00
20260903205419 94 139 3.0 3.0 0.00 0.00 0.00
20260903204918 96 110 3.0 4.0 0.00 0.00 0.00
20260903204419 95 89 2.0 2.0 0.00 0.00 0.00
20260903203918 92 153 4.0 4.0 0.00 0.00 0.00
20260903203419 96 152 4.0 6.0 0.00 0.00 0.00
20260903202918 97 241 4.0 7.0 0.00 0.00 0.00
20260903201918 92 125 2.0 5.0 0.00 0.00 0.00
20260903201418 94 104 4.0 5.0 0.00 0.00 0.00
20260903200919 93 177 4.0 4.0 0.00 0.00 0.00
20260903200419 92 155 4.0 4.0 0.00 0.00 0.00
20260903195919 92 203 3.0 8.0 0.00 0.00 0.00
20260903195419 92 179 3.0 4.0 0.00 0.00 0.00
20260903194919 91 148 5.0 8.0 0.00 0.00 0.00
20260903193919 90 87 3.0 7.0 0.00 0.00 0.00
20260903193419 90 221 3.0 8.0 0.00 0.00 0.00
20260903192538 90 114 3.0 4.0 0.00 0.00 0.00
20260903192419 90 114 3.0 4.0 0.00 0.00 0.00
20260903190419 90 191 4.0 6.0 0.00 0.00 0.00
20260903184421 90 210 4.0 10.0 0.00 0.00 0.00
20260903183919 91 114 4.0 7.0 0.00 0.00 0.00
20260903183419 90 165 4.0 6.0 0.00 0.00 0.00
20260903182419 91 55 4.0 11.0 0.00 0.00 0.00
20260903181919 90 72 5.0 7.0 0.00 0.00 0.00
20260903181419 92 197 5.0 9.0 0.00 0.00 0.00
20260903180421 90 176 3.0 4.0 0.00 0.00 0.00
20260903174419 90 37 4.0 6.0 0.00 0.00 0.00
20260903173419 91 35 3.0 10.0 0.00 0.00 0.00
20260903172920 92 156 4.0 9.0 0.00 0.00 0.00
20260903172420 91 224 4.0 6.0 0.00 0.00 0.00
20260903171420 94 214 5.0 5.0 0.00 0.00 0.00
20260903170920 91 106 4.0 5.0 0.00 0.00 0.00
20260903170420 90 75 3.0 5.0 0.00 0.00 0.00
20260903165920 90 122 3.0 9.0 0.00 0.00 0.00
20260903165420 90 169 3.0 8.0 0.00 0.00 0.00
20260903164920 90 176 3.0 6.0 0.00 0.00 0.00
20260903164420 89 206 3.0 7.0 0.00 0.00 0.00
20260903163919 89 49 4.0 9.0 0.00 0.00 0.00
20260903163420 88 15 3.0 7.0 0.00 0.00 0.00
20260903162921 88 215 3.0 10.0 0.00 0.00 0.00
20260903162421 87 144 2.0 4.0 0.00 0.00 0.00
20260903161419 87 149 3.0 6.0 0.00 0.00 0.00
20260903160920 87 173 2.0 6.0 0.00 0.00 0.00
20260903160420 86 166 2.0 4.0 0.00 0.00 0.00
20260903155920 85 114 3.0 5.0 0.00 0.00 0.00
20260903155419 86 249 3.0 3.0 0.00 0.00 0.00
20260903154919 87 196 4.0 7.0 0.00 0.00 0.00
20260903154419 86 241 2.0 6.0 0.00 0.00 0.00
20260903153919 86 103 3.0 4.0 0.00 0.00 0.00
20260903153419 86 211 3.0 5.0 0.00 0.00 0.00
20260903152920 84 107 2.0 2.0 0.00 0.00 0.00
20260903151919 84 132 4.0 3.0 0.00 0.00 0.00
20260903151419 84 159 1.0 4.0 0.00 0.00 0.00
20260903150920 82 131 2.0 5.0 0.00 0.00 0.00
20260903150420 82 101 1.0 4.0 0.00 0.00 0.00
20260903145920 82 155 3.0 5.0 0.00 0.00 0.00
20260903145420 82 122 3.0 3.0 0.00 0.00 0.00
20260903143920 82 113 1.0 6.0 0.00 0.00 0.00
20260903142920 82 120 2.0 7.0 0.00 0.00 0.00
20260903142420 81 103 3.0 5.0 0.00 0.00 0.00
20260903141420 81 110 2.0 5.0 0.00 0.00 0.00
20260903140920 81 156 1.0 3.0 0.00 0.00 0.00
20260903135920 80 187 1.0 4.0 0.00 0.00 0.00
20260903134420 79 149 2.0 4.0 0.00 0.00 0.00
20260903113921 77 239 0.0 0.0 0.00 0.00 0.00
20260903112921 76 101 0.0 0.0 0.00 0.00 0.00
20260903112421 76 56 0.0 0.0 0.00 0.00 0.00
20260903111921 77 96 0.0 0.0 0.00 0.00 0.00
20260903105921 77 96 1.0 0.0 0.00 0.00 0.00
20260903104421 77 118 0.0 0.0 0.00 0.00 0.00
20260903103421 78 121 0.0 1.0 0.00 0.00 0.00
20260903102921 78 108 0.0 0.0 0.00 0.00 0.00
20260903102421 78 124 0.0 0.0 0.00 0.00 0.00
20260903101921 78 124 0.0 0.0 0.00 0.00 0.00
20260903101421 78 124 0.0 1.0 0.00 0.00 0.00
20260903100421 78 132 0.0 0.0 0.00 0.00 0.00
20260903095921 78 90 0.0 0.0 0.00 0.00 0.00
20260903095421 78 90 0.0 0.0 0.00 0.00 0.00
20260903093421 77 58 0.0 0.0 0.00 0.00 0.00
20260903092921 77 58 0.0 0.0 0.00 0.00 0.00
20260903092421 77 222 0.0 1.0 0.00 0.00 0.00
20260903090921 77 222 0.0 0.0 0.00 0.00 0.00
20260903090421 77 222 0.0 0.0 0.00 0.00 0.00
20260903052421 83 96 1.0 4.0 0.00 0.00 0.00
20260903051421 83 73 3.0 5.0 0.00 0.00 0.00
20260903045921 83 61 1.0 4.0 0.00 0.00 0.00
20260903045421 84 76 2.0 2.0 0.00 0.00 0.00
20260903044921 84 41 2.0 1.0 0.00 0.00 0.00
20260903043922 84 51 1.0 3.0 0.00 0.00 0.00
20260903041422 85 111 1.0 3.0 0.00 0.00 0.00
20260903035922 86 55 2.0 0.0 0.00 0.00 0.00
20260903034422 86 124 1.0 4.0 0.00 0.00 0.00
20260903032422 87 15 3.0 3.0 0.00 0.00 0.00
20260903031922 87 90 2.0 4.0 0.00 0.00 0.00
20260903030422 88 107 1.0 5.0 0.00 0.00 0.00
20260903024422 89 110 2.0 7.0 0.00 0.00 0.00
20260903023922 90 173 3.0 6.0 0.00 0.00 0.00
20260903015922 91 277 3.0 5.0 0.00 0.00 0.00
20260903015422 91 169 3.0 4.0 0.00 0.00 0.00
20260903012422 92 162 3.0 3.0 0.00 0.00 0.00
20260902233422 100 162 2.0 5.0 0.00 0.00 0.00
20260902222923 103 70 3.0 6.0 0.00 0.00 0.00